Location: Großmugl Leeberg
(48.4883°N, 16.2231°E)
Time: 07:59:38
(UTC+01:00)

ISS - Visible Passes

Search period start: 25 January 2021 00:00
Search period end: 04 February 2021 00:00
Orbit: 418 x 421 km, 51.6° (Epoch: 25 January)

Date Brightness Start Highest point End Pass type
(mag) Time Alt. Az. Time Alt. Az. Time Alt. Az.
25 Jan -3.6 17:58:49 10° W 18:02:11 68° NNW 18:04:02 24° ENE visible
25 Jan -0.9 19:35:59 10° WNW 19:37:00 18° WNW 19:37:00 18° WNW visible
26 Jan -3.7 17:11:24 10° WSW 17:14:48 87° NNW 17:18:11 10° ENE visible
26 Jan -3.1 18:48:33 10° WNW 18:51:35 46° NNW 18:51:35 46° NNW visible
27 Jan -3.3 18:01:04 10° W 18:04:23 49° N 18:06:09 24° ENE visible
27 Jan -0.9 19:38:08 10° WNW 19:39:07 18° WNW 19:39:07 18° WNW visible
28 Jan -3.2 18:50:43 10° WNW 18:53:41 49° NNW 18:53:41 49° NNW visible
29 Jan -3.3 18:03:16 10° WNW 18:06:35 47° N 18:08:17 24° ENE visible
29 Jan -1.0 19:40:11 10° WNW 19:41:15 19° WNW 19:41:15 19° WNW visible
30 Jan -3.6 18:52:46 10° WNW 18:55:52 68° NNW 18:55:52 68° NNW visible
31 Jan -3.6 18:05:20 10° WNW 18:08:41 60° NNE 18:10:33 24° E visible
31 Jan -1.0 19:42:15 10° WNW 19:43:31 20° W 19:43:31 20° W visible
01 Feb -3.4 18:54:45 10° WNW 18:58:05 58° SSW 18:58:16 57° SSW visible
02 Feb -3.7 18:07:17 10° WNW 18:10:40 82° SSW 18:13:06 18° ESE visible
02 Feb -0.9 19:44:42 10° W 19:46:06 16° WSW 19:46:06 16° WSW visible
03 Feb -1.8 18:56:54 10° W 18:59:48 27° SW 19:01:05 21° S visible
